This demonstration page uses our WeatherBlox Daily Observations layout. Learn more.

Left ArrowRight Arrow

53.62937, 11.41316

Hourly Observations for July 10, 2018

Temp ( °F °C ) Dew Point ( °F °C ) Humidity (%) Winds ( mph kmh ) Pressure ( in mb ) Visibility ( mi km ) Precip ( " mm )
6:50 am 06:50 Mostly Sunny 54 12 52 11 94 94 SE 6 9 29.94 1014 7 11 N/A
7:20 am 07:20 Mostly Sunny 55 13 54 12 94 94 SE 6 9 29.94 1014 7 11 N/A
7:50 am 07:50 Mostly Sunny 55 13 52 11 88 88 SE 5 7 29.94 1014 7 11 N/A
8:20 am 08:20 Sunny 57 14 52 11 82 82 SSE 6 9 29.94 1014 30 48 N/A
8:50 am 08:50 Partly Cloudy 59 15 52 11 77 77 VRB 2 4 29.97 1015 30 48 N/A
9:20 am 09:20 Mostly Cloudy 59 15 48 9 68 68 E 7 11 29.97 1015 30 48 N/A
9:50 am 09:50 Mostly Cloudy 59 15 50 10 72 72 ESE 6 9 29.97 1015 30 48 N/A
10:20 am 10:20 Mostly Cloudy 63 17 48 9 59 59 SE 8 13 29.97 1015 30 48 N/A
10:50 am 10:50 Mostly Cloudy 63 17 50 10 64 64 SE 6 9 29.97 1015 30 48 N/A
11:20 am 11:20 Mostly Cloudy 63 17 46 8 56 56 E 8 13 29.97 1015 30 48 N/A
11:50 am 11:50 Mostly Cloudy 66 19 46 8 49 49 E 8 13 29.97 1015 30 48 N/A
12:20 pm 12:20 Mostly Cloudy 64 18 46 8 52 52 E 7 11 29.97 1015 30 48 N/A
12:50 pm 12:50 Mostly Cloudy 66 19 46 8 49 49 E 10 17 29.97 1015 30 48 N/A
1:20 pm 13:20 Mostly Cloudy 64 18 52 11 64 64 NNE 10 17 29.97 1015 30 48 N/A
1:50 pm 13:50 Mostly Cloudy 66 19 48 9 52 52 E 8 13 30.00 1016 30 48 N/A
2:20 pm 14:20 Mostly Cloudy 64 18 48 9 56 56 E 8 13 30.00 1016 30 48 N/A
2:50 pm 14:50 Mostly Cloudy 64 18 48 9 56 56 SE 5 7 30.00 1016 30 48 N/A
3:20 pm 15:20 Mostly Cloudy 66 19 50 10 56 56 ENE 10 17 30.00 1016 30 48 N/A
3:50 pm 15:50 Mostly Cloudy 70 21 52 11 53 53 ENE 10 17 30.00 1016 30 48 N/A
4:20 pm 16:20 Mostly Cloudy 68 20 50 10 53 53 ENE 13 20 30.00 1016 30 48 N/A
4:50 pm 16:50 Mostly Cloudy 68 20 48 9 49 49 NE 10 17 30.00 1016 30 48 N/A
5:20 pm 17:20 Mostly Cloudy 66 19 52 11 60 60 NNE 15 24 30.00 1016 30 48 N/A
5:50 pm 17:50 Mostly Cloudy 66 19 52 11 60 60 NNE 10 17 30.00 1016 30 48 N/A
6:20 pm 18:20 Mostly Cloudy 68 20 50 10 53 53 ENE 15 24 30.00 1016 30 48 N/A
6:50 pm 18:50 Partly Cloudy 66 19 50 10 56 56 NE 13 20 30.00 1016 30 48 N/A
7:20 pm 19:20 Mostly Sunny 68 20 52 11 56 56 ENE 14 22 30.00 1016 7 11 N/A
7:50 pm 19:50 Mostly Sunny 66 19 52 11 60 60 NE 13 20 30.00 1016 7 11 N/A
8:20 pm 20:20 Mostly Sunny 64 18 54 12 68 68 NE 12 19 30.00 1016 7 11 N/A
8:50 pm 20:50 Mostly Sunny 64 18 55 13 73 73 NE 12 19 30.03 1017 7 11 N/A

Powered by AerisWeather